DateTime,DeltaTime,Roll,TargetAngle,Position,Power
2022-05-23 15:03:33.036,0,0.82,0.97,1,2.85
2022-05-23 15:03:33.150,0.114000588655472,0.83,1.2,1,-4.98
2022-05-23 15:03:33.265,0.228996947407722,0.91,1.75,0,-6.16
2022-05-23 15:03:33.379,0.342997536063194,1.02,2.32,1,-13.34
2022-05-23 15:03:33.495,0.45899972319603,1.21,3.29,0,-11.36
2022-05-23 15:03:33.609,0.573000311851501,1.34,3.55,1,-17.9
2022-05-23 15:03:33.720,0.684003531932831,1.45,3.77,1,-12.7
2022-05-23 15:03:33.835,0.798999890685081,1.44,3.29,1,-11.57
2022-05-23 15:03:33.949,0.913000479340553,1.41,3.02,1,-11.05
2022-05-23 15:03:34.064,1.0279968380928,1.45,3.5,1,-13.97
2022-05-23 15:03:34.179,1.14300325512886,1.52,3.89,2,-15.55
2022-05-23 15:03:34.294,1.25799961388111,1.52,3.6,1,-8.85
2022-05-23 15:03:34.408,1.37200020253658,1.45,2.96,1,-12.48
2022-05-23 15:03:34.523,1.48699656128883,1.24,1.69,1,-5.85
2022-05-23 15:03:34.637,1.60099714994431,0.98,0.52,2,-1.71
2022-05-23 15:03:34.752,1.71600356698036,0.67,-0.78,2,8.32
2022-05-23 15:03:34.867,1.83099992573261,0.4,-1.52,1,9.26
2022-05-23 15:03:34.981,1.94500051438808,0.23,-1.71,1,4.55
2022-05-23 15:03:35.097,2.06100270152092,0.14,-1.61,3,5.33
2022-05-23 15:03:35.210,2.17399746179581,0.13,-1.35,1,14.45
2022-05-23 15:03:35.325,2.28900387883186,0.13,-1.27,1,2.15
2022-05-23 15:03:35.441,2.40499600768089,0.05,-1.92,2,8.31
2022-05-23 15:03:35.555,2.51899659633636,-0.1,-2.74,1,16.84
2022-05-23 15:03:35.670,2.63400301337242,-0.28,-3.53,2,13.86
2022-05-23 15:03:35.785,2.74899937212467,-0.48,-4.32,1,23.51
2022-05-23 15:03:35.900,2.86399573087692,-0.56,-4.04,2,15.34
2022-05-23 15:03:36.014,2.97799631953239,-0.39,-2.36,1,14.04
2022-05-23 15:03:36.129,3.09300273656845,-0.27,-2.17,0,9.38
2022-05-23 15:03:36.243,3.20700332522392,-0.14,-1.72,1,3.99
2022-05-23 15:03:36.359,3.32299545407295,-0.07,-1.67,0,10.8
2022-05-23 15:03:36.473,3.43699604272842,0.04,-1.16,1,2.26
2022-05-23 15:03:36.587,3.5509966313839,0.18,-0.48,0,5.95
2022-05-23 15:03:36.702,3.66600304841995,0.3,-0.18,0,-0.87
2022-05-23 15:03:36.816,3.78000363707542,0.48,0.7,1,-3.5
2022-05-23 15:03:36.931,3.89499999582767,0.64,1.22,0,-0.05
2022-05-23 15:03:37.046,4.00999635457993,0.82,1.93,1,-9.25
2022-05-23 15:03:37.157,4.12099957466125,0.97,2.27,0,-3.88
2022-05-23 15:03:37.271,4.23500016331673,1.15,3.05,0,-13.75
2022-05-23 15:03:37.385,4.3490007519722,1.28,3.32,1,-13.05
2022-05-23 15:03:37.500,4.46399711072445,1.36,3.36,1,-8.2
2022-05-23 15:03:37.616,4.57999929785728,1.33,2.75,0,-6.62
2022-05-23 15:03:37.729,4.69300411641598,1.27,2.46,1,-11.15
2022-05-23 15:03:37.845,4.80899624526501,1.18,1.97,0,-3
2022-05-23 15:03:37.960,4.92400266230106,1.09,1.69,1,-8.63
2022-05-23 15:03:38.075,5.03899902105331,1.03,1.55,0,-2.12
2022-05-23 15:03:38.189,5.15299960970879,1.06,2.1,0,-11.46
2022-05-23 15:03:38.304,5.26799596846104,1.18,2.9,0,-13.6
2022-05-23 15:03:38.418,5.38199655711651,1.37,3.86,0,-17.63
2022-05-23 15:03:38.533,5.49700297415257,1.57,4.65,1,-20.63
2022-05-23 15:03:38.647,5.61100356280804,1.69,4.68,0,-15.21
2022-05-23 15:03:38.763,5.72699569165707,1.41,1.94,1,-8.09
2022-05-23 15:03:38.877,5.84099628031254,1.22,1.7,2,-4.37
2022-05-23 15:03:38.993,5.95699846744537,1.17,2.17,1,-3.37
2022-05-23 15:03:39.106,6.07000328600407,1.27,3.09,1,-13.73
2022-05-23 15:03:39.220,6.18400387465954,1.44,4.05,2,-16.17
2022-05-23 15:03:39.336,6.29999600350857,1.58,4.42,2,-12.08
2022-05-23 15:03:39.449,6.41300082206726,1.7,4.74,2,-14.7
2022-05-23 15:03:39.564,6.52799718081951,1.75,4.61,2,-13.9
2022-05-23 15:03:39.679,6.64300359785557,1.68,3.79,3,-10.2
2022-05-23 15:03:39.795,6.7589957267046,1.59,3.42,3,-4.6
2022-05-23 15:03:39.908,6.87200054526329,1.49,3.05,3,-4.57
2022-05-23 15:03:40.024,6.98800273239613,1.37,2.49,3,-2.27
2022-05-23 15:03:40.138,7.1020033210516,1.12,1.06,4,4.19
2022-05-23 15:03:40.254,7.21799544990063,0.9,0.42,2,10.71
2022-05-23 15:03:40.368,7.3319960385561,0.78,0.46,3,-1.3
2022-05-23 15:03:40.478,7.44200348854065,0.74,0.67,2,5.45
2022-05-23 15:03:40.593,7.5569998472929,0.76,0.99,2,-1.97
2022-05-23 15:03:40.707,7.67100043594837,0.79,1.13,3,-0.85
2022-05-23 15:03:40.822,7.78599679470062,0.71,0.41,2,8
2022-05-23 15:03:40.936,7.89999738335609,0.47,-1.19,3,8.99
2022-05-23 15:03:41.051,8.01500380039215,0.07,-3.23,2,23.72
2022-05-23 15:03:41.166,8.1300001591444,-0.33,-4.65,2,22.42
2022-05-23 15:03:41.280,8.24400074779987,-0.27,-2.4,3,11.2
2022-05-23 15:03:41.396,8.36000293493271,-0.32,-3.14,0,23.29
2022-05-23 15:03:41.510,8.47400352358818,-0.53,-4.53,0,13.48
2022-05-23 15:03:41.624,8.58800411224365,-0.88,-6.35,1,25.14
2022-05-23 15:03:41.740,8.70399624109268,-1.2,-7.33,1,33.24
2022-05-23 15:03:41.855,8.81900265812874,-0.99,-4.28,0,16.14
2022-05-23 15:03:41.969,8.93300324678421,-0.63,-2.41,-2,6.27
2022-05-23 15:03:42.084,9.04799960553646,-0.72,-4.65,-2,11.44
2022-05-23 15:03:42.198,9.16200019419193,-1.2,-8.01,-2,28.18
2022-05-23 15:03:42.313,9.27699655294418,-1.52,-8.48,-4,26.69
2022-05-23 15:03:42.427,9.39099714159966,-1.38,-5.98,-4,4.16
2022-05-23 15:03:42.542,9.50600355863571,-1.29,-5.86,-7,9.62
2022-05-23 15:03:42.657,9.62099991738796,-1.47,-7.67,-6,4
2022-05-23 15:03:42.772,9.73599627614021,-1.73,-8.92,-5,16.86
2022-05-23 15:03:42.887,9.85100269317627,-1.89,-9.04,-6,19.81
2022-05-23 15:03:43.001,9.96500328183174,-2.06,-9.72,-6,17.09
2022-05-23 15:03:43.115,10.0790038704872,-2.25,-10.47,-6,21.6
2022-05-23 15:03:43.230,10.1940002292395,-2.49,-11.51,-6,26.27
2022-05-23 15:03:43.345,10.3089965879917,-2.39,-9.64,-7,16.01
2022-05-23 15:03:43.460,10.4240030050278,-2.11,-7.91,-7,5.16
2022-05-23 15:03:43.575,10.53899936378,-1.83,-6.96,-8,4.06
2022-05-23 15:03:43.689,10.6529999524355,-1.63,-6.6,-8,-1.48
2022-05-23 15:03:43.804,10.7679963111877,-1.58,-7.06,-7,2.47
2022-05-23 15:03:43.918,10.8819968998432,-1.72,-8.33,-7,13.14
2022-05-23 15:03:44.033,10.9970033168793,-2.05,-10.38,-7,20.53
2022-05-23 15:03:44.148,11.1119996756315,-2.39,-11.58,-7,24.17
2022-05-23 15:03:44.264,11.2280018627644,-2.64,-12.06,-8,25.38
2022-05-23 15:03:44.377,11.3409966230392,-2.21,-7.6,-10,-2.08
2022-05-23 15:03:44.492,11.4560030400753,-1.73,-5.73,-8,-14.3
2022-05-23 15:03:44.606,11.5700036287308,-1.41,-5.27,-8,-1.95
2022-05-23 15:03:44.717,11.6809967905283,-1.22,-5.18,-8,-4.64
2022-05-23 15:03:44.832,11.7960032075644,-1.16,-5.59,-9,-2.75
2022-05-23 15:03:44.946,11.9100037962198,-1.34,-7.18,-9,-0.52
2022-05-23 15:03:45.061,12.0250001549721,-1.61,-8.59,-9,5.58
2022-05-23 15:03:45.176,12.1399965137243,-1.93,-9.93,-10,10.36
2022-05-23 15:03:45.290,12.2539971023798,-2.24,-10.94,-8,8.76
2022-05-23 15:03:45.406,12.3699992895126,-2.27,-9.79,-9,13.07
2022-05-23 15:03:45.520,12.4839998781681,-1.93,-7.01,-10,-6.75
2022-05-23 15:03:45.635,12.5989962369204,-1.22,-2.95,-9,-27.3
2022-05-23 15:03:45.749,12.7129968255758,-0.8,-2.69,-8,-17.61
2022-05-23 15:03:45.864,12.8280032426119,-0.71,-3.87,-7,-8.28
2022-05-23 15:03:45.978,12.9420038312674,-0.76,-4.62,-7,-2.76
2022-05-23 15:03:46.093,13.0570001900196,-0.89,-5.46,-6,-1.06
2022-05-23 15:03:46.207,13.1710007786751,-1.13,-6.73,-7,9.05
2022-05-23 15:03:46.323,13.2870029658079,-1.15,-5.88,-7,-3.09
2022-05-23 15:03:46.437,13.4010035544634,-1,-4.6,-6,-7.19
2022-05-23 15:03:46.552,13.5159999132156,-0.52,-1.47,-8,-16.4
2022-05-23 15:03:46.666,13.6300005018711,0.08,1.17,-6,-37.2
2022-05-23 15:03:46.782,13.7460026890039,-0.07,-2.69,-4,-2.68
2022-05-23 15:03:46.896,13.8600032776594,-0.52,-5.53,-4,13.58
2022-05-23 15:03:47.010,13.9740038663149,-0.8,-5.76,-4,8.5
2022-05-23 15:03:47.126,14.0899959951639,-1.05,-6.5,-3,12.09
2022-05-23 15:03:47.240,14.2039965838194,-1.2,-6.59,-4,16.78
2022-05-23 15:03:47.355,14.3190030008554,-1.07,-4.95,-3,2.49
2022-05-23 15:03:47.470,14.4339993596077,-0.62,-1.98,-3,-3.81
2022-05-23 15:03:47.584,14.5479999482632,0.06,1.43,-3,-18.38
2022-05-23 15:03:47.699,14.6629963070154,0.68,3.36,-3,-24
2022-05-23 15:03:47.813,14.7769968956709,0.59,-0.06,6,-4.92
2022-05-23 15:03:47.928,14.8920033127069,0.06,-3.83,0,54.2
2022-05-23 15:03:48.043,15.0069996714592,0.41,1.18,-3,-18.77
2022-05-23 15:03:48.157,15.1210002601147,0.63,1.46,-4,-20.87
2022-05-23 15:03:48.272,15.2359966188669,0.2,-2.94,-4,-0
2022-05-23 15:03:48.387,15.351003035903,-0.2,-4.17,-4,1.61
2022-05-23 15:03:48.502,15.4659993946552,-0.08,-1.53,-4,-13.18
2022-05-23 15:03:48.612,15.575996786356,0.42,1.92,-3,-27.2
2022-05-23 15:03:48.727,15.691003203392,0.69,1.81,0,-17.69
2022-05-23 15:03:48.841,15.8050037920475,0.41,-1.51,1,12.04
2022-05-23 15:03:48.956,15.9200001507998,0.11,-2.7,1,14.88
2022-05-23 15:03:49.070,16.0340007394552,-0.17,-3.57,1,16.67
2022-05-23 15:03:49.185,16.1489970982075,-0.2,-2.57,1,10.97
2022-05-23 15:03:49.300,16.2640035152435,0.25,1.05,1,-5.53
2022-05-23 15:03:49.415,16.3789998739958,1.07,5.6,1,-23.54
2022-05-23 15:03:49.529,16.4930004626513,1.79,7.68,3,-28.4
2022-05-23 15:03:49.644,16.6079968214035,1.81,4.63,4,-1.05
2022-05-23 15:03:49.758,16.721997410059,1.26,0.29,5,18.95
2022-05-23 15:03:49.874,16.8379995971918,0.72,-1.6,4,26.72
2022-05-23 15:03:49.988,16.9520001858473,0.76,1.06,4,5.24
2022-05-23 15:03:50.103,17.0669965445995,1.1,3.6,3,-2.39
2022-05-23 15:03:50.218,17.1820029616356,1.81,7.73,3,-24.7
2022-05-23 15:03:50.333,17.2969993203878,2.26,8.12,4,-20.37
2022-05-23 15:03:50.446,17.4100041389465,2.25,6.05,5,-4.96
2022-05-23 15:03:50.562,17.5259962677956,1.87,3.16,6,10.28
2022-05-23 15:03:50.676,17.639996856451,1.23,-0.28,7,27.55
2022-05-23 15:03:50.790,17.7539974451065,0.74,-1.27,4,32.28
2022-05-23 15:03:50.905,17.8690038621426,1.18,4.32,2,-12.52
2022-05-23 15:03:51.021,17.9849959909916,2.06,9.26,3,-36.03
2022-05-23 15:03:51.135,18.0989965796471,2.57,9.52,5,-23.89
2022-05-23 15:03:51.250,18.2140029966831,2.87,9.57,7,-15.74
2022-05-23 15:03:51.365,18.3289993554354,2.98,9.14,9,-6.54
2022-05-23 15:03:51.479,18.4429999440908,2.46,4.64,9,22.59
2022-05-23 15:03:51.594,18.5579963028431,1.13,-3.62,7,55.82
2022-05-23 15:03:51.709,18.6730027198792,0.79,-0.49,3,20.93
2022-05-23 15:03:51.823,18.7870033085346,1.58,7.24,1,-30.31
2022-05-23 15:03:51.938,18.9019996672869,2.7,12.58,3,-52.08
2022-05-23 15:03:52.052,19.0160002559423,3.21,11.75,6,-28.61
2022-05-23 15:03:52.167,19.1309966146946,3.66,13.04,11,-24.55
2022-05-23 15:03:52.282,19.2460030317307,4.11,14.6,14,-10.21
2022-05-23 15:03:52.397,19.3609993904829,3.51,7.94,14,33.25
2022-05-23 15:03:52.512,19.4759957492352,1.79,-3.02,12,75.94
2022-05-23 15:03:52.626,19.5899963378906,1.61,3.09,7,22.3
2022-05-23 15:03:52.736,19.7000037878752,2.41,10.23,2,-27.01
2022-05-23 15:03:52.850,19.8140043765306,3.31,13.77,4,-54.11
2022-05-23 15:03:52.966,19.9299965053797,3.73,13.14,10,-30.32
2022-05-23 15:03:53.080,20.0439970940351,4.73,19.13,13,-34.5
2022-05-23 15:03:53.195,20.1590035110712,5.83,23.5,17,-42.24
2022-05-23 15:03:53.309,20.2730040997267,4.32,6.73,20,62.44
2022-05-23 15:03:53.424,20.3880004584789,3.59,7.65,17,48.3
2022-05-23 15:03:53.540,20.5040026456118,3.19,7.67,12,30.51
2022-05-23 15:03:53.654,20.6180032342672,2.97,7.66,7,10.32
2022-05-23 15:03:53.768,20.7320038229227,2.88,7.96,7,-9.22
2022-05-23 15:03:53.883,20.847000181675,3.07,9.8,6,-11.59
2022-05-23 15:03:53.998,20.9619965404272,4.02,16.48,7,-47.82
2022-05-23 15:03:54.113,21.0770029574633,4.34,14.85,9,-25.52
2022-05-23 15:03:54.227,21.1910035461187,4.45,14.32,13,-17.07
2022-05-23 15:03:54.342,21.305999904871,3.56,6.78,12,36.88
2022-05-23 15:03:54.456,21.4200004935265,3.33,8.91,12,6.68
2022-05-23 15:03:54.571,21.5349968522787,2.29,1.72,10,47
2022-05-23 15:03:54.686,21.6500032693148,2.57,8.48,7,-5.88
2022-05-23 15:03:54.800,21.7640038579702,2.79,9,6,-11.86
2022-05-23 15:03:54.916,21.8799959868193,3.68,14.99,7,-42.38
2022-05-23 15:03:55.030,21.9939965754747,3.65,10.93,9,-8.74
2022-05-23 15:03:55.145,22.1090029925108,4.43,17.13,11,-36.76
2022-05-23 15:03:55.259,22.2230035811663,4.12,11.29,14,7.25
2022-05-23 15:03:55.375,22.3389957100153,4.35,14.49,14,-4.07
2022-05-23 15:03:55.489,22.4529962986708,3.13,3.89,14,49.15
2022-05-23 15:03:55.604,22.5680027157068,3,8.17,11,15.92
2022-05-23 15:03:55.718,22.6820033043623,2.62,5.75,9,19.18
2022-05-23 15:03:55.832,22.7960038930178,3.26,12.46,8,-23.17
2022-05-23 15:03:55.947,22.91100025177,3.98,15.34,9,-31.49
2022-05-23 15:03:56.062,23.0259966105223,4.34,15.02,12,-20.47
2022-05-23 15:03:56.177,23.1410030275583,4.62,15.66,14,-10.95
2022-05-23 15:03:56.291,23.2550036162138,4.43,12.92,14,9.33
2022-05-23 15:03:56.406,23.369999974966,3.34,5.21,15,41.78
2022-05-23 15:03:56.521,23.4849963337183,2.97,6.98,12,28.62
2022-05-23 15:03:56.635,23.5989969223738,3.04,9.21,10,4.23
2022-05-23 15:03:56.750,23.7140033394098,3.9,15.64,9,-30.82
2022-05-23 15:03:56.865,23.8289996981621,4.72,18.37,10,-38.98
2022-05-23 15:03:56.980,23.9439960569143,4.73,14.88,14,-12.47
2022-05-23 15:03:57.094,24.0579966455698,5.03,17.16,16,-10.2
2022-05-23 15:03:57.209,24.1730030626059,4.83,14.29,17,11.59
2022-05-23 15:03:57.323,24.2870036512613,3.98,8.49,16,39.39
2022-05-23 15:03:57.438,24.4020000100136,2.99,4.37,14,46.88
2022-05-23 15:03:57.553,24.5169963687658,3.27,10.88,10,0.36
2022-05-23 15:03:57.668,24.6320027858019,4.31,17.91,10,-43.38
2022-05-23 15:03:57.783,24.7469991445541,4.99,18.68,12,-33.48
2022-05-23 15:03:57.896,24.8600039631128,5.12,16.7,16,-13.39
2022-05-23 15:03:58.012,24.9759960919619,5.17,16.57,18,1.63
2022-05-23 15:03:58.126,25.0899966806173,5.18,16.45,19,6.76
2022-05-23 15:03:58.241,25.2050030976534,4.07,7.61,18,53.36
2022-05-23 15:03:58.356,25.3199994564056,4.16,13.25,14,8.85
2022-05-23 15:03:58.470,25.4340000450611,3.69,9.1,12,18.7
2022-05-23 15:03:58.585,25.5489964038134,4.03,13.85,12,-14.77
2022-05-23 15:03:58.700,25.6640028208494,5.03,20.22,13,-37.97
2022-05-23 15:03:58.814,25.7780034095049,6.05,23.85,17,-43.55
2022-05-23 15:03:58.929,25.8929997682571,6.04,19.34,20,1.46
2022-05-23 15:03:59.044,26.0079961270094,5.75,17.09,21,16.38
2022-05-23 15:03:59.158,26.1219967156649,5.25,14.45,20,27.97
2022-05-23 15:03:59.273,26.2370031327009,3.94,6.34,18,59.37
2022-05-23 15:03:59.389,26.3529952615499,4.33,15.1,14,-3.38
2022-05-23 15:03:59.502,26.4660000801086,4.93,18.09,12,-23.99
2022-05-23 15:03:59.617,26.5809964388609,5.48,19.85,15,-34.02
2022-05-23 15:03:59.732,26.6960028558969,5.7,19.16,16,-11.34
2022-05-23 15:03:59.846,26.8100034445524,6.43,23.96,18,-35.55
2022-05-23 15:03:59.961,26.9249998033047,6.3,19.73,21,-0.17
2022-05-23 15:04:00.075,27.0390003919601,5.7,15.54,21,27.45
2022-05-23 15:04:00.191,27.155002579093,4.22,6.56,20,63.45
2022-05-23 15:04:00.305,27.2690031677485,4.24,13.22,15,15.02
2022-05-23 15:04:00.419,27.3830037564039,4.23,12.97,12,1.87
2022-05-23 15:04:00.531,27.495002746582,4.22,12.99,12,-6.81
2022-05-23 15:04:00.645,27.6090033352375,5.03,19.38,12,-34.87
2022-05-23 15:04:00.760,27.7239996939898,5.57,20.08,14,-30.72
2022-05-23 15:04:00.873,27.8370045125484,5.49,17.11,17,-5.65
2022-05-23 15:04:00.988,27.9520008713007,4.88,12.72,18,24.5
2022-05-23 15:04:01.103,28.0669972300529,4.33,10.98,17,28.91
2022-05-23 15:04:01.218,28.182003647089,4.24,12.66,14,12.55
2022-05-23 15:04:01.333,28.2970000058413,3.24,5.25,13,38.5
2022-05-23 15:04:01.448,28.4119963645935,3.42,10.99,11,-0.13
2022-05-23 15:04:01.562,28.525996953249,4.15,15.99,10,-26.14
2022-05-23 15:04:01.677,28.641003370285,4.8,17.91,12,-32.04
2022-05-23 15:04:01.792,28.7559997290373,4.71,14.36,14,-1.19
2022-05-23 15:04:01.907,28.8709960877895,5.53,21.2,15,-32.86
2022-05-23 15:04:02.021,28.984996676445,5.02,13.56,17,16.02
2022-05-23 15:04:02.136,29.1000030934811,4.4,10.97,15,27.77
2022-05-23 15:04:02.250,29.2140036821365,3.5,6.6,16,34.18
2022-05-23 15:04:02.365,29.3290000408888,3.12,7.48,12,32.43
2022-05-23 15:04:02.481,29.4450022280216,3.79,14.41,10,-21.61
2022-05-23 15:04:02.595,29.5590028166771,4.43,16.53,11,-28.08
2022-05-23 15:04:02.709,29.6730034053326,4.5,14.29,13,-7.12
2022-05-23 15:04:02.824,29.7879997640848,5.27,20.11,14,-30.74
2022-05-23 15:04:02.939,29.9029961228371,4.42,10.02,16,29.05
2022-05-23 15:04:03.054,30.0180025398731,4.65,15.52,18,-2.62
2022-05-23 15:04:03.168,30.1320031285286,3.63,6.49,14,57.2
2022-05-23 15:04:03.283,30.2469994872808,4.11,14.76,11,-18.9
2022-05-23 15:04:03.397,30.3610000759363,2.96,3.61,11,37.9
2022-05-23 15:04:03.512,30.4759964346886,3.31,11.31,9,-10.64
2022-05-23 15:04:03.627,30.5910028517246,3.71,13,9,-19
2022-05-23 15:04:03.742,30.7059992104769,4.28,15.69,10,-28.01
2022-05-23 15:04:03.856,30.8199997991323,3.85,9.88,12,8.96
2022-05-23 15:04:03.971,30.9349961578846,4.44,16.39,13,-22.51
2022-05-23 15:04:04.086,31.0500025749207,3.42,5.74,14,41.25
2022-05-23 15:04:04.200,31.1640031635761,3.89,13.94,11,-9.31
2022-05-23 15:04:04.315,31.2789995223284,2.1,-2.23,10,65.93
2022-05-23 15:04:04.430,31.3939958810806,3.46,16.33,7,-48.97
2022-05-23 15:04:04.545,31.5090022981167,2.71,4.45,8,21.02
2022-05-23 15:04:04.659,31.6230028867722,3.72,15.69,10,-41.55
2022-05-23 15:04:04.774,31.7379992455244,3.65,10.7,11,6.1
2022-05-23 15:04:04.888,31.8519998341799,4.51,17.82,12,-33.72
2022-05-23 15:04:05.003,31.9669961929321,4.17,11.31,13,11.19
2022-05-23 15:04:05.117,32.0809967815876,3.87,10.52,13,10.41
2022-05-23 15:04:05.233,32.1969989687204,2.88,4.03,13,40.73
2022-05-23 15:04:05.347,32.3109995573759,3.04,9.55,11,5.49
2022-05-23 15:04:05.462,32.4259959161282,3.3,10.96,11,-4.07
2022-05-23 15:04:05.577,32.5410023331642,4.25,17.28,10,-31.17
2022-05-23 15:04:05.691,32.6550029218197,4.14,12.28,12,-3.51
2022-05-23 15:04:05.806,32.7699992805719,4.88,18.57,13,-30.38
2022-05-23 15:04:05.920,32.8839998692274,4.71,13.96,15,2.69
2022-05-23 15:04:06.035,32.9989962279797,4.26,11.24,14,18.83
2022-05-23 15:04:06.149,33.1129968166351,3.33,5.85,15,34.99
2022-05-23 15:04:06.265,33.228999003768,2.36,2.26,12,52.93
2022-05-23 15:04:06.379,33.3429995924234,3.07,12.08,9,-17.09
2022-05-23 15:04:06.494,33.4579959511757,3.81,14.83,9,-29.04
2022-05-23 15:04:06.609,33.5730023682117,4.02,13.22,10,-14.04
2022-05-23 15:04:06.723,33.6870029568672,3.81,10.66,12,1.3
2022-05-23 15:04:06.838,33.8019993156195,4.19,14.58,12,-13.04
2022-05-23 15:04:06.952,33.9159999042749,4.59,16.05,13,-18.09
2022-05-23 15:04:07.067,34.0309962630272,4.52,13.77,13,-0.15
2022-05-23 15:04:07.182,34.1460026800632,3.65,7.25,13,28.1
2022-05-23 15:04:07.297,34.2609990388155,2.84,4.61,12,33.29
2022-05-23 15:04:07.411,34.374999627471,3.01,9.53,10,0.97
2022-05-23 15:04:07.526,34.4899959862232,4.15,17.77,10,-42.22
2022-05-23 15:04:07.641,34.6050024032593,5.13,20.5,12,-43.22
2022-05-23 15:04:07.755,34.7190029919147,3.92,6.64,15,38.73
2022-05-23 15:04:07.872,34.8360009491444,3.8,11.04,16,11.43
2022-05-23 15:04:07.985,34.9489957094193,5.19,22.46,15,-38.46
2022-05-23 15:04:08.100,35.0640021264553,3.93,6.48,16,49.49
2022-05-23 15:04:08.214,35.1780027151108,4.01,12.64,15,5.65
2022-05-23 15:04:08.329,35.292999073863,3.97,11.94,14,11.2
2022-05-23 15:04:08.443,35.4069996625185,3.63,9.53,14,18.94
2022-05-23 15:04:08.558,35.5219960212708,3.59,10.65,14,11.9
2022-05-23 15:04:08.673,35.6370024383068,3.84,12.76,14,3.14
2022-05-23 15:04:08.787,35.7510030269623,3.49,8.95,14,25.05
2022-05-23 15:04:08.901,35.8650036156178,3.69,12,14,5.26
2022-05-23 15:04:09.016,35.97999997437,3.07,6.33,14,37.8
2022-05-23 15:04:09.131,36.0949963331223,3.28,10.64,12,9.5
2022-05-23 15:04:09.247,36.2109985202551,2.45,3.17,10,42.82
2022-05-23 15:04:09.361,36.3249991089106,2.7,8.78,8,-1.57
2022-05-23 15:04:09.471,36.4349965006113,2.2,3.76,7,23.6
2022-05-23 15:04:09.585,36.5489970892668,2.18,5.84,7,4.65
2022-05-23 15:04:09.701,36.6649992763996,2.32,7,7,2.99
2022-05-23 15:04:09.815,36.7789998650551,2.39,6.91,7,4.94
2022-05-23 15:04:09.929,36.8930004537106,2.04,3.89,7,19.94
2022-05-23 15:04:10.045,37.0090026408434,1.31,-0.4,6,37.73
2022-05-23 15:04:10.160,37.1239989995956,0.85,-0.79,5,29.74
2022-05-23 15:04:10.274,37.2379995882511,1.05,2.79,1,8.23
2022-05-23 15:04:10.389,37.3529959470034,1.35,4.28,1,-13.02
2022-05-23 15:04:10.504,37.4680023640394,1.14,1.32,1,8.69
2022-05-23 15:04:10.618,37.5820029526949,0.85,-0.06,1,11.7
2022-05-23 15:04:10.733,37.6969993114471,0.82,1.04,1,4.47
2022-05-23 15:04:10.847,37.8109999001026,0.84,1.22,1,5
2022-05-23 15:04:10.962,37.9259962588549,0.77,0.69,1,7.89
2022-05-23 15:04:11.078,38.0419984459877,0.55,-0.82,1,14.74
2022-05-23 15:04:11.191,38.1550032645464,0.21,-2.48,0,21.25
2022-05-23 15:04:11.306,38.2699996232986,-0.05,-3.05,0,17.22
2022-05-23 15:04:11.421,38.3849959820509,0.08,-0.94,0,7.53
2022-05-23 15:04:11.536,38.500002399087,0.69,3.31,0,-10.89
2022-05-23 15:04:11.650,38.6140029877424,1.34,5.79,0,-18.01
2022-05-23 15:04:11.765,38.7289993464947,1.51,4.28,1,-7.75
2022-05-23 15:04:11.879,38.8429999351501,1.21,1.18,1,10.38
2022-05-23 15:04:11.994,38.9579962939024,0.66,-1.87,1,20.27
2022-05-23 15:04:12.110,39.0739984810352,0.04,-4.31,1,28.71
2022-05-23 15:04:12.224,39.1879990696907,0.18,-0.52,0,7.05
2022-05-23 15:04:12.339,39.302995428443,0.71,3.05,-2,-10.69
2022-05-23 15:04:12.453,39.4169960170984,1.4,6.13,-2,-30.4
2022-05-23 15:04:12.568,39.5320024341345,1.69,5.41,0,-20.89
2022-05-23 15:04:12.683,39.6469987928867,1.38,1.73,2,5.92
2022-05-23 15:04:12.793,39.7569961845875,1.25,2.06,2,6.67
2022-05-23 15:04:12.907,39.870996773243,1.36,3.47,2,-2.6
2022-05-23 15:04:13.022,39.986003190279,1.48,3.93,1,-3.17
2022-05-23 15:04:13.137,40.1009995490313,1.45,3.24,2,-4.31
2022-05-23 15:04:13.251,40.2150001376867,1.37,2.69,2,3.67
2022-05-23 15:04:13.366,40.329996496439,1.37,3.05,2,-0.25
2022-05-23 15:04:13.481,40.445002913475,1.37,3.06,2,0.07
2022-05-23 15:04:13.595,40.5590035021305,1.46,3.73,2,-3.35
2022-05-23 15:04:13.710,40.6739998608828,1.42,3.09,3,0.59
2022-05-23 15:04:13.825,40.788996219635,1.11,0.79,2,16.14
2022-05-23 15:04:13.939,40.9029968082905,0.63,-1.67,1,19.34
2022-05-23 15:04:14.054,41.0180032253265,-0.1,-5.25,1,30.62
2022-05-23 15:04:14.169,41.1329995840788,-0.26,-3.41,1,18.64
2022-05-23 15:04:14.284,41.247995942831,0.26,1.47,0,-2.96
2022-05-23 15:04:14.399,41.3630023598671,0.9,4.16,-1,-15.08
2022-05-23 15:04:14.513,41.4770029485226,1.16,3.46,0,-12.08
2022-05-23 15:04:14.628,41.5919993072748,1,1.06,0,4.88
2022-05-23 15:04:14.742,41.7059998959303,0.52,-2.04,0,15.83
2022-05-23 15:04:14.857,41.8209962546825,-0.0600000000000001,-4.48,1,24.17
2022-05-23 15:04:14.972,41.9360026717186,-0.25,-3.45,0,21.21
2022-05-23 15:04:15.086,42.0500032603741,0.35,2.07,-2,-10.94
2022-05-23 15:04:15.201,42.1649996191263,1.08,5.25,-2,-28.51
2022-05-23 15:04:15.316,42.2799959778786,1.32,3.9,0,-15.64
2022-05-23 15:04:15.431,42.3950023949146,1.23,2.14,1,0.86
2022-05-23 15:04:15.545,42.5090029835701,1.2,2.34,1,-0.24
2022-05-23 15:04:15.660,42.6239993423223,1.27,2.99,2,-4.65
2022-05-23 15:04:15.775,42.7389957010746,1.32,3.08,1,0.54
2022-05-23 15:04:15.890,42.8540021181107,1.2,1.93,0,0.04
2022-05-23 15:04:16.004,42.9680027067661,1.03,1.1,2,-1.13
2022-05-23 15:04:16.115,43.0789958685637,0.88,0.65,1,11.26
2022-05-23 15:04:16.229,43.1929964572191,0.79,0.67,2,3.07
2022-05-23 15:04:16.344,43.3080028742552,0.74,0.58,2,9.87
2022-05-23 15:04:16.458,43.4220034629107,0.64,0.07,2,11.16
2022-05-23 15:04:16.573,43.5369998216629,0.47,-0.83,2,15.16
2022-05-23 15:04:16.689,43.6530020087957,0.32,-1.31,2,16.64
2022-05-23 15:04:16.803,43.7670025974512,0.19,-1.66,1,18.06
2022-05-23 15:04:16.917,43.8810031861067,0.11,-1.69,1,13.07
2022-05-23 15:04:17.031,43.9950037747622,0.17,-0.89,1,10.59
2022-05-23 15:04:17.147,44.1109959036112,0.46,1.11,1,1.83
2022-05-23 15:04:17.261,44.2249964922667,0.71,1.81,2,0.93
2022-05-23 15:04:17.375,44.3389970809221,0.93,2.47,2,3.49
2022-05-23 15:04:17.490,44.4540034979582,1.01,2.15,2,4.55
2022-05-23 15:04:17.605,44.5689998567104,0.89,0.8,2,10.89
2022-05-23 15:04:17.720,44.6839962154627,0.84,1.02,1,8.14
2022-05-23 15:04:17.835,44.7990026324987,0.8,0.88,1,4.21
2022-05-23 15:04:17.950,44.913998991251,0.83,1.3,1,3.24